Weather History for Belize, Belize

Change the Weather History Date:

Sunday, May 4, 2014

  Actual Average Record
Temperature  
Mean Temperature 80 °F -  
Max Temperature 86 °F 90 °F 89 °F (1997)
Min Temperature 73 °F 76 °F 69 °F (2013)
Cooling Degree Days 14    
Growing Degree Days 30 (Base 50)    
Moisture  
Dew Point 74 °F    
Average Humidity 83    
Maximum Humidity 100    
Minimum Humidity 62    
Precipitation  
Precipitation 0.94 in 0.17 in - ()
Sea Level Pressure  
Sea Level Pressure 30.01 in    
Wind  
Wind Speed 7 mph ()    
Max Wind Speed 13 mph    
Max Gust Speed -    
Visibility 7.3 miles    
Events Rain , Thunderstorm    
Averages and records for this station are not official NWS values.
T = Trace of Precipitation, MM = Missing Value Source: Averaged Metar Reports

Daily Weather History Graph

Daily Weather History Graph

Search for Another Location

Airport:

Trip Planner

Search our weather history database for the weather conditions in past years. The results will help you decide how hot, cold, wet, or windy it might be!

Date:

Astronomy

May. 04, 2014 Rise Set
Actual Time 5:25 AM CST 6:14 PM CST
Civil Twilight 5:02 AM CST 6:37 PM CST
Nautical Twilight 4:35 AM CST 7:04 PM CST
Astronomical Twilight 4:08 AM CST 7:31 PM CST
Moon 9:52 AM CST (5/4) 10:59 PM CST (5/4)
Length of Visible Light 13h 34m
Length of Day
12h 49m
Waxing Crescent, 28% of the Moon is Illuminated
May 4
Waxing Crescent
May 6
First Quarter
May 14
Full
May 21
Last Quarter
May 28
New

Hourly Weather History & Observations

Time (CST) Temp. Heat Index Dew Point Humidity Pressure Visibility Wind Dir Wind Speed Gust Speed Precip Events Conditions
12:00 AM 77 °F - 75 °F 90% 30.02 in 2 mi ENE 12.7 mph - - Rain , Thunderstorm Thunderstorms and Rain
3:00 AM 73 °F - 72 °F 97% 30.01 in 7 mi West 5.8 mph - - Rain Light Rain
5:00 AM 73.4 °F - 73.4 °F 100% 30.02 in 4.3 mi NNW 5.8 mph - N/A Rain Light Rain Showers
6:00 AM 74 °F - 73 °F 97% 30.04 in 12 mi NW 5.8 mph - - Rain Light Rain Showers
6:00 AM 73.4 °F - 73.4 °F 100% 30.03 in 6.2 mi NW 5.8 mph - N/A   Mostly Cloudy
7:00 AM 75.2 °F - 73.4 °F 94% 30.05 in 6.2 mi NW 8.1 mph - N/A   Mostly Cloudy
8:00 AM 75.2 °F - 73.4 °F 94% 30.05 in 6.2 mi NNW 8.1 mph - N/A   Mostly Cloudy
9:00 AM 77 °F - 74 °F 87% 30.06 in 12 mi North 8.1 mph - -   Mostly Cloudy
9:00 AM 77.0 °F - 73.4 °F 89% 30.05 in 6.2 mi North 8.1 mph - N/A   Mostly Cloudy
9:30 AM 80.6 °F 87.1 °F 77.0 °F 89% 30.05 in 6.2 mi NNW 8.1 mph - N/A   Scattered Clouds
10:00 AM 82.4 °F 89.5 °F 75.2 °F 79% 30.04 in 6.2 mi North 6.9 mph - N/A   Mostly Cloudy
11:00 AM 82.4 °F 89.5 °F 75.2 °F 79% 30.03 in 6.2 mi ENE 6.9 mph - N/A   Mostly Cloudy
12:00 PM 85 °F - 76 °F 67% 30.01 in 7 mi ENE 9.2 mph - -   Mostly Cloudy
12:00 PM 84.2 °F 92.3 °F 75.2 °F 74% 30.00 in 6.2 mi ENE 9.2 mph - N/A   Scattered Clouds
1:00 PM 84.2 °F 92.3 °F 75.2 °F 74% 29.99 in 6.2 mi NE 10.4 mph - N/A   Scattered Clouds
2:00 PM 86.0 °F 95.1 °F 75.2 °F 70% 29.97 in 6.2 mi ENE 11.5 mph - N/A   Scattered Clouds
3:00 PM 84 °F - 73 °F 62% 29.97 in 12 mi ENE 9.2 mph - -   Mostly Cloudy
3:00 PM 84.2 °F 90.9 °F 73.4 °F 70% 29.96 in 6.2 mi ENE 9.2 mph - N/A   Mostly Cloudy
4:00 PM 84.2 °F 90.9 °F 73.4 °F 70% 29.96 in 6.2 mi ENE 5.8 mph - N/A   Mostly Cloudy
5:00 PM 84.2 °F 90.9 °F 73.4 °F 70% 29.97 in 6.2 mi NE 4.6 mph - N/A   Mostly Cloudy
6:00 PM 82 °F - 76 °F 78% 29.99 in 12 mi SSE 2.3 mph - -   Mostly Cloudy
6:00 PM 82.4 °F 90.9 °F 77.0 °F 84% 29.98 in 6.2 mi SSE 2.3 mph - N/A   Mostly Cloudy
9:00 PM 77 °F - 75 °F 90% 30.04 in 12 mi Calm Calm - -   Partly Cloudy